Time,TemperatureF,DewpointF,PressureIn,WindDirection,WindDirectionDegrees,WindSpeedMPH,WindSpeedGustMPH,Humidity,HourlyPrecipIn,Conditions,Clouds,dailyrainin,SoftwareType,DateUTC
2013-03-02 00:00:00,38.9,32.3,29.67,SW,234,3.0,10.0,77,0.00,,OVC042,0.00,VWS V14.01,2013-03-02 05:00:00,
2013-03-02 00:01:00,38.9,32.3,29.67,SW,234,3.0,10.0,77,0.00,,OVC042,0.00,VWS V14.01,2013-03-02 05:01:00,
2013-03-02 00:03:00,38.8,32.2,29.67,WNW,294,4.0,5.0,77,0.00,,OVC042,0.00,VWS V14.01,2013-03-02 05:03:00,
2013-03-02 00:14:00,38.6,32.0,29.67,NW,311,3.0,6.0,77,0.00,,OVC042,0.00,VWS V14.01,2013-03-02 05:14:00,
2013-03-02 00:19:00,38.4,31.8,29.67,WNW,292,1.0,6.0,77,0.00,,OVC042,0.00,VWS V14.01,2013-03-02 05:19:00,
2013-03-02 00:24:00,38.3,31.7,29.67,SSW,196,1.0,7.0,77,0.00,,OVC042,0.00,VWS V14.01,2013-03-02 05:24:00,
2013-03-02 00:29:00,38.2,31.6,29.67,West,260,2.0,7.0,77,0.00,,OVC042,0.00,VWS V14.01,2013-03-02 05:29:00,
2013-03-02 00:31:00,38.2,31.6,29.67,West,260,2.0,7.0,77,0.00,,OVC042,0.00,VWS V14.01,2013-03-02 05:31:00,
2013-03-02 00:34:00,38.0,31.4,29.67,WNW,292,3.0,4.0,77,0.00,,OVC042,0.00,VWS V14.01,2013-03-02 05:34:00,
2013-03-02 00:39:00,37.9,31.4,29.67,West,277,0.0,6.0,77,0.00,,OVC042,0.00,VWS V14.01,2013-03-02 05:39:00,
2013-03-02 00:44:00,37.8,31.2,29.67,NNW,330,0.0,6.0,77,0.00,,OVC042,0.00,VWS V14.01,2013-03-02 05:44:00,
2013-03-02 00:49:00,37.7,31.1,29.67,SW,236,2.0,7.0,77,0.00,,OVC042,0.00,VWS V14.01,2013-03-02 05:49:00,
2013-03-02 00:54:00,37.5,31.3,29.67,NW,323,1.0,7.0,78,0.00,,OVC042,0.00,VWS V14.01,2013-03-02 05:54:00,
2013-03-02 00:59:00,37.4,31.2,29.68,SSW,196,0.0,7.0,78,0.00,,OVC042,0.00,VWS V14.01,2013-03-02 05:59:00,
2013-03-02 01:04:00,37.3,31.1,29.67,NNW,329,1.0,5.0,78,0.00,,OVC060,0.00,VWS V14.01,2013-03-02 06:04:00,
2013-03-02 01:09:00,37.2,31.0,29.67,NNW,332,1.0,5.0,78,0.00,,OVC060,0.00,VWS V14.01,2013-03-02 06:09:00,
2013-03-02 01:14:00,37.1,30.9,29.67,NW,312,3.0,5.0,78,0.00,,OVC060,0.00,VWS V14.01,2013-03-02 06:14:00,
2013-03-02 01:19:00,37.0,30.8,29.67,WNW,294,1.0,6.0,78,0.00,,OVC060,0.00,VWS V14.01,2013-03-02 06:19:00,
2013-03-02 01:24:00,36.9,30.7,29.67,WNW,287,1.0,6.0,78,0.00,,OVC060,0.00,VWS V14.01,2013-03-02 06:24:00,
2013-03-02 01:29:00,36.8,30.6,29.67,NNW,334,1.0,7.0,78,0.00,,OVC060,0.00,VWS V14.01,2013-03-02 06:29:00,
2013-03-02 01:34:00,36.7,30.2,29.67,NW,315,2.0,9.0,77,0.00,,OVC060,0.00,VWS V14.01,2013-03-02 06:34:00,
2013-03-02 01:39:00,36.6,30.1,29.67,WNW,283,0.0,13.0,77,0.00,,OVC060,0.00,VWS V14.01,2013-03-02 06:39:00,
2013-03-02 01:44:00,36.5,29.7,29.67,NW,315,0.0,13.0,76,0.00,,OVC060,0.00,VWS V14.01,2013-03-02 06:44:00,
2013-03-02 01:49:00,36.4,29.6,29.67,WNW,302,2.0,13.0,76,0.00,,OVC060,0.00,VWS V14.01,2013-03-02 06:49:00,
2013-03-02 01:54:00,36.4,29.2,29.67,NW,309,5.0,13.0,75,0.00,,OVC060,0.00,VWS V14.01,2013-03-02 06:54:00,
2013-03-02 01:59:00,36.3,29.1,29.66,NW,323,4.0,13.0,75,0.00,,OVC060,0.00,VWS V14.01,2013-03-02 06:59:00,
2013-03-02 02:04:00,36.2,29.0,29.67,NNW,329,6.0,6.0,75,0.00,,SCT065,0.00,VWS V14.01,2013-03-02 07:04:00,
2013-03-02 02:09:00,36.1,29.0,29.66,NNW,327,4.0,6.0,75,0.00,,SCT065,0.00,VWS V14.01,2013-03-02 07:09:00,
2013-03-02 02:14:00,36.1,29.0,29.66,NNW,332,5.0,9.0,75,0.00,,SCT065,0.00,VWS V14.01,2013-03-02 07:14:00,
2013-03-02 02:19:00,36.0,29.2,29.67,NW,313,2.0,9.0,76,0.00,,SCT065,0.00,VWS V14.01,2013-03-02 07:19:00,
2013-03-02 02:24:00,35.9,29.1,29.66,NW,317,3.0,9.0,76,0.00,,SCT065,0.00,VWS V14.01,2013-03-02 07:24:00,
2013-03-02 02:29:00,35.9,29.4,29.66,NW,309,2.0,9.0,77,0.00,,SCT065,0.00,VWS V14.01,2013-03-02 07:29:00,
2013-03-02 02:34:00,35.8,29.3,29.66,NNW,335,2.0,6.0,77,0.00,,SCT065,0.00,VWS V14.01,2013-03-02 07:34:00,
2013-03-02 02:39:00,35.7,29.2,29.66,NW,304,1.0,6.0,77,0.00,,SCT065,0.00,VWS V14.01,2013-03-02 07:39:00,
2013-03-02 02:44:00,35.6,29.4,29.66,NW,321,3.0,6.0,78,0.00,,SCT065,0.00,VWS V14.01,2013-03-02 07:44:00,
2013-03-02 02:49:00,35.5,29.3,29.66,WNW,300,1.0,6.0,78,0.00,,SCT065,0.00,VWS V14.01,2013-03-02 07:49:00,
2013-03-02 02:54:00,35.4,29.2,29.66,WNW,296,1.0,6.0,78,0.00,,SCT065,0.00,VWS V14.01,2013-03-02 07:54:00,
2013-03-02 02:59:00,35.3,29.5,29.66,NW,306,0.0,6.0,79,0.00,,SCT065,0.00,VWS V14.01,2013-03-02 07:59:00,
2013-03-02 03:04:00,35.3,29.5,29.66,NW,316,0.0,4.0,79,0.00,,FEW060,0.00,VWS V14.01,2013-03-02 08:04:00,
2013-03-02 03:09:00,35.2,29.4,29.66,West,269,1.0,6.0,79,0.00,,FEW060,0.00,VWS V14.01,2013-03-02 08:09:00,
2013-03-02 03:14:00,35.1,29.6,29.66,WNW,288,1.0,6.0,80,0.00,,FEW060,0.00,VWS V14.01,2013-03-02 08:14:00,
2013-03-02 03:19:00,35.0,29.5,29.66,WNW,302,2.0,6.0,80,0.00,,FEW060,0.00,VWS V14.01,2013-03-02 08:19:00,
2013-03-02 03:24:00,34.9,29.4,29.66,West,280,2.0,6.0,80,0.00,,FEW060,0.00,VWS V14.01,2013-03-02 08:24:00,
2013-03-02 03:29:00,34.8,29.3,29.66,NW,325,6.0,6.0,80,0.00,,FEW060,0.00,VWS V14.01,2013-03-02 08:29:00,
2013-03-02 03:34:00,34.8,29.3,29.66,NW,322,1.0,3.0,80,0.00,,FEW060,0.00,VWS V14.01,2013-03-02 08:34:00,
2013-03-02 03:39:00,34.7,29.2,29.66,NNW,331,1.0,3.0,80,0.00,,FEW060,0.00,VWS V14.01,2013-03-02 08:39:00,
2013-03-02 03:44:00,34.6,29.1,29.66,WNW,296,2.0,3.0,80,0.00,,FEW060,0.00,VWS V14.01,2013-03-02 08:44:00,
2013-03-02 03:49:00,34.5,29.3,29.66,NW,304,0.0,4.0,81,0.00,,FEW060,0.00,VWS V14.01,2013-03-02 08:49:00,
2013-03-02 03:54:00,34.4,29.2,29.66,NW,320,2.0,4.0,81,0.00,,FEW060,0.00,VWS V14.01,2013-03-02 08:54:00,
2013-03-02 03:59:00,34.3,29.1,29.66,NW,312,1.0,4.0,81,0.00,,FEW060,0.00,VWS V14.01,2013-03-02 08:59:00,
2013-03-02 04:04:00,34.2,29.3,29.66,NW,319,2.0,4.0,82,0.00,,CLR,0.00,VWS V14.01,2013-03-02 09:04:00,
2013-03-02 04:09:00,34.1,29.2,29.66,NW,311,1.0,5.0,82,0.00,,CLR,0.00,VWS V14.01,2013-03-02 09:09:00,
2013-03-02 04:14:00,34.1,29.2,29.67,NW,325,1.0,5.0,82,0.00,,CLR,0.00,VWS V14.01,2013-03-02 09:14:00,
2013-03-02 04:19:00,34.0,29.1,29.67,NNW,331,3.0,5.0,82,0.00,,CLR,0.00,VWS V14.01,2013-03-02 09:19:00,
2013-03-02 04:24:00,33.9,29.3,29.67,North,5,3.0,5.0,83,0.00,,CLR,0.00,VWS V14.01,2013-03-02 09:24:00,
2013-03-02 04:29:00,33.9,29.3,29.67,North,350,1.0,5.0,83,0.00,,CLR,0.00,VWS V14.01,2013-03-02 09:29:00,
2013-03-02 04:34:00,33.8,29.2,29.67,NW,323,0.0,5.0,83,0.00,,CLR,0.00,VWS V14.01,2013-03-02 09:34:00,
2013-03-02 04:39:00,33.8,29.2,29.67,NW,308,3.0,5.0,83,0.00,,CLR,0.00,VWS V14.01,2013-03-02 09:39:00,
2013-03-02 04:44:00,33.8,29.2,29.67,WNW,293,0.0,5.0,83,0.00,,CLR,0.00,VWS V14.01,2013-03-02 09:44:00,
2013-03-02 04:49:00,33.8,29.2,29.67,WNW,286,3.0,5.0,83,0.00,,CLR,0.00,VWS V14.01,2013-03-02 09:49:00,
2013-03-02 04:54:00,33.9,29.3,29.67,NW,310,2.0,5.0,83,0.00,,CLR,0.00,VWS V14.01,2013-03-02 09:54:00,
2013-03-02 04:59:00,33.9,29.3,29.67,NW,323,3.0,7.0,83,0.00,,CLR,0.00,VWS V14.01,2013-03-02 09:59:00,
2013-03-02 05:04:00,34.0,29.4,29.67,NNW,339,3.0,4.0,83,0.00,,SCT038,0.00,VWS V14.01,2013-03-02 10:04:00,
2013-03-02 05:09:00,34.1,29.5,29.67,WNW,302,1.0,5.0,83,0.00,,SCT038,0.00,VWS V14.01,2013-03-02 10:09:00,
2013-03-02 05:14:00,34.1,29.2,29.67,NW,308,1.0,5.0,82,0.00,,SCT038,0.00,VWS V14.01,2013-03-02 10:14:00,
2013-03-02 05:19:00,34.2,29.3,29.67,NW,316,1.0,9.0,82,0.00,,SCT038,0.00,VWS V14.01,2013-03-02 10:19:00,
2013-03-02 05:24:00,34.2,29.3,29.67,NW,319,0.0,9.0,82,0.00,,SCT038,0.00,VWS V14.01,2013-03-02 10:24:00,
2013-03-02 05:29:00,34.3,29.4,29.66,NNW,333,4.0,9.0,82,0.00,,SCT038,0.00,VWS V14.01,2013-03-02 10:29:00,
2013-03-02 05:34:00,34.3,29.4,29.66,NW,314,7.0,7.0,82,0.00,,SCT038,0.00,VWS V14.01,2013-03-02 10:34:00,
2013-03-02 05:39:00,34.3,29.1,29.66,NW,305,3.0,9.0,81,0.00,,SCT038,0.00,VWS V14.01,2013-03-02 10:39:00,
2013-03-02 05:44:00,34.3,29.1,29.66,WNW,282,3.0,9.0,81,0.00,,SCT038,0.00,VWS V14.01,2013-03-02 10:44:00,
2013-03-02 05:49:00,34.3,29.1,29.66,WNW,300,3.0,9.0,81,0.00,,SCT038,0.00,VWS V14.01,2013-03-02 10:49:00,
2013-03-02 05:54:00,34.2,29.0,29.66,WNW,295,0.0,9.0,81,0.00,,SCT038,0.00,VWS V14.01,2013-03-02 10:54:00,
2013-03-02 05:59:00,34.2,29.0,29.66,NNW,329,2.0,9.0,81,0.00,,SCT038,0.00,VWS V14.01,2013-03-02 10:59:00,
2013-03-02 06:04:00,34.1,28.9,29.66,WNW,299,0.0,7.0,81,0.00,,OVC055,0.00,VWS V14.01,2013-03-02 11:04:00,
2013-03-02 06:09:00,34.1,28.9,29.66,WNW,286,1.0,7.0,81,0.00,,OVC055,0.00,VWS V14.01,2013-03-02 11:09:00,
2013-03-02 06:15:00,34.1,28.9,29.67,NW,316,2.0,7.0,81,0.00,,OVC055,0.00,VWS V14.01,2013-03-02 11:15:00,
2013-03-02 06:20:00,34.1,28.9,29.67,NW,324,5.0,7.0,81,0.00,,OVC055,0.00,VWS V14.01,2013-03-02 11:20:00,
2013-03-02 06:25:00,34.1,28.9,29.67,NNW,334,6.0,9.0,81,0.00,,OVC055,0.00,VWS V14.01,2013-03-02 11:25:00,
2013-03-02 06:30:00,34.2,29.0,29.67,NW,309,2.0,9.0,81,0.00,,OVC055,0.00,VWS V14.01,2013-03-02 11:30:00,
2013-03-02 06:35:00,34.3,29.1,29.67,NW,318,5.0,9.0,81,0.00,,OVC055,0.00,VWS V14.01,2013-03-02 11:35:00,
2013-03-02 06:40:00,34.4,28.9,29.67,North,355,3.0,9.0,80,0.00,,OVC055,0.00,VWS V14.01,2013-03-02 11:40:00,
2013-03-02 06:45:00,34.5,29.0,29.67,WSW,246,2.0,9.0,80,0.00,,OVC055,0.00,VWS V14.01,2013-03-02 11:45:00,
2013-03-02 06:50:00,34.6,29.1,29.67,NW,313,3.0,9.0,80,0.00,,OVC055,0.00,VWS V14.01,2013-03-02 11:50:00,
2013-03-02 06:55:00,34.7,29.2,29.67,NW,311,4.0,9.0,80,0.00,,OVC055,0.00,VWS V14.01,2013-03-02 11:55:00,
2013-03-02 07:00:00,34.8,29.0,29.67,NW,322,0.0,9.0,79,0.00,,OVC055,0.00,VWS V14.01,2013-03-02 12:00:00,
2013-03-02 07:05:00,34.9,29.1,29.67,West,277,1.0,4.0,79,0.00,,BKN055,0.00,VWS V14.01,2013-03-02 12:05:00,
2013-03-02 07:10:00,35.0,29.2,29.67,WNW,300,2.0,7.0,79,0.00,,BKN055,0.00,VWS V14.01,2013-03-02 12:10:00,
2013-03-02 07:15:00,35.0,29.2,29.68,SW,231,4.0,8.0,79,0.00,,BKN055,0.00,VWS V14.01,2013-03-02 12:15:00,
2013-03-02 07:20:00,35.1,29.3,29.68,NW,314,3.0,8.0,79,0.00,,BKN055,0.00,VWS V14.01,2013-03-02 12:20:00,
2013-03-02 07:25:00,35.2,29.0,29.68,NW,322,3.0,8.0,78,0.00,,BKN055,0.00,VWS V14.01,2013-03-02 12:25:00,
2013-03-02 07:30:00,35.2,29.0,29.67,NW,314,1.0,8.0,78,0.00,,BKN055,0.00,VWS V14.01,2013-03-02 12:30:00,
2013-03-02 07:35:00,35.2,28.7,29.67,NNW,340,3.0,8.0,77,0.00,,BKN055,0.00,VWS V14.01,2013-03-02 12:35:00,
2013-03-02 07:40:00,35.3,28.8,29.67,NNW,333,7.0,9.0,77,0.00,,BKN055,0.00,VWS V14.01,2013-03-02 12:40:00,
2013-03-02 07:45:00,35.4,28.9,29.68,NNW,342,0.0,9.0,77,0.00,,BKN055,0.00,VWS V14.01,2013-03-02 12:45:00,
2013-03-02 07:50:00,35.5,29.0,29.68,NW,322,0.0,10.0,77,0.00,,BKN055,0.00,VWS V14.01,2013-03-02 12:50:00,
2013-03-02 07:55:00,35.7,29.2,29.68,WNW,283,4.0,10.0,77,0.00,,BKN055,0.00,VWS V14.01,2013-03-02 12:55:00,
2013-03-02 08:00:00,35.8,29.0,29.68,NW,305,2.0,10.0,76,0.00,,BKN055,0.00,VWS V14.01,2013-03-02 13:00:00,
2013-03-02 08:05:00,36.0,28.9,29.68,WNW,298,1.0,9.0,75,0.00,,CLR,0.00,VWS V14.01,2013-03-02 13:05:00,
2013-03-02 08:10:00,36.2,29.0,29.68,WNW,291,6.0,11.0,75,0.00,,CLR,0.00,VWS V14.01,2013-03-02 13:10:00,
2013-03-02 08:15:00,36.5,29.0,29.67,West,263,2.0,12.0,74,0.00,,CLR,0.00,VWS V14.01,2013-03-02 13:15:00,
2013-03-02 08:20:00,36.8,29.3,29.67,WNW,296,3.0,12.0,74,0.00,,CLR,0.00,VWS V14.01,2013-03-02 13:20:00,
2013-03-02 08:25:00,37.1,29.3,29.67,WNW,290,8.0,12.0,73,0.00,,CLR,0.00,VWS V14.01,2013-03-02 13:25:00,
2013-03-02 08:30:00,37.4,29.2,29.67,NNW,341,5.0,14.0,72,0.00,,CLR,0.00,VWS V14.01,2013-03-02 13:30:00,
2013-03-02 08:35:00,37.7,29.5,29.67,NW,322,5.0,10.0,72,0.00,,CLR,0.00,VWS V14.01,2013-03-02 13:35:00,
2013-03-02 08:40:00,38.0,29.5,29.67,WNW,296,5.0,10.0,71,0.00,,CLR,0.00,VWS V14.01,2013-03-02 13:40:00,
2013-03-02 08:45:00,38.3,29.7,29.67,NW,313,1.0,10.0,71,0.00,,CLR,0.00,VWS V14.01,2013-03-02 13:45:00,
2013-03-02 08:50:00,38.7,29.8,29.67,NNW,329,2.0,10.0,70,0.00,,CLR,0.00,VWS V14.01,2013-03-02 13:50:00,
2013-03-02 08:55:00,39.1,30.2,29.67,WNW,300,2.0,10.0,70,0.00,,CLR,0.00,VWS V14.01,2013-03-02 13:55:00,
2013-03-02 09:00:00,39.5,29.8,29.66,WNW,301,3.0,12.0,68,0.00,,CLR,0.00,VWS V14.01,2013-03-02 14:00:00,
2013-03-02 09:05:00,39.8,30.1,29.67,WNW,288,2.0,10.0,68,0.00,,BKN038,0.00,VWS V14.01,2013-03-02 14:05:00,
2013-03-02 09:10:00,40.0,29.9,29.66,NNW,331,12.0,12.0,67,0.00,,BKN038,0.00,VWS V14.01,2013-03-02 14:10:00,
2013-03-02 09:15:00,40.1,29.7,29.66,NW,325,5.0,13.0,66,0.00,,BKN038,0.00,VWS V14.01,2013-03-02 14:15:00,
2013-03-02 09:20:00,40.3,30.2,29.66,WNW,300,6.0,13.0,67,0.00,,BKN038,0.00,VWS V14.01,2013-03-02 14:20:00,
2013-03-02 09:25:00,40.5,30.0,29.66,WNW,284,2.0,15.0,66,0.00,,BKN038,0.00,VWS V14.01,2013-03-02 14:25:00,
2013-03-02 09:30:00,40.6,29.8,29.66,NW,308,8.0,15.0,65,0.00,,BKN038,0.00,VWS V14.01,2013-03-02 14:30:00,
2013-03-02 09:35:00,40.9,30.4,29.66,NW,306,2.0,9.0,66,0.00,,BKN038,0.00,VWS V14.01,2013-03-02 14:35:00,
2013-03-02 09:40:00,41.1,30.2,29.66,NNW,342,2.0,11.0,65,0.00,,BKN038,0.00,VWS V14.01,2013-03-02 14:40:00,
2013-03-02 09:45:00,41.2,30.3,29.66,NW,321,3.0,11.0,65,0.00,,BKN038,0.00,VWS V14.01,2013-03-02 14:45:00,
2013-03-02 09:50:00,41.4,30.5,29.66,East,81,1.0,11.0,65,0.00,,BKN038,0.00,VWS V14.01,2013-03-02 14:50:00,
2013-03-02 09:55:00,41.7,30.8,29.66,North,360,6.0,11.0,65,0.00,,BKN038,0.00,VWS V14.01,2013-03-02 14:55:00,
2013-03-02 10:00:00,42.0,30.7,29.66,WNW,283,0.0,11.0,64,0.00,,BKN038,0.00,VWS V14.01,2013-03-02 15:00:00,
2013-03-02 10:05:00,42.2,30.5,29.66,NNW,346,6.0,8.0,63,0.00,,OVC036,0.00,VWS V14.01,2013-03-02 15:05:00,
2013-03-02 10:10:00,42.0,29.9,29.66,WNW,282,0.0,9.0,62,0.00,,OVC036,0.00,VWS V14.01,2013-03-02 15:10:00,
2013-03-02 10:15:00,41.7,29.7,29.66,NW,313,2.0,10.0,62,0.00,,OVC036,0.00,VWS V14.01,2013-03-02 15:15:00,
2013-03-02 10:20:00,41.5,29.9,29.66,NNW,329,7.0,10.0,63,0.00,,OVC036,0.00,VWS V14.01,2013-03-02 15:20:00,
2013-03-02 10:25:00,41.3,29.7,29.66,WSW,248,4.0,10.0,63,0.00,,OVC036,0.00,VWS V14.01,2013-03-02 15:25:00,
2013-03-02 10:30:00,41.1,29.5,29.66,West,267,2.0,10.0,63,0.00,,OVC036,0.00,VWS V14.01,2013-03-02 15:30:00,
2013-03-02 10:35:00,41.0,29.8,29.66,NW,323,7.0,11.0,64,0.00,,OVC036,0.00,VWS V14.01,2013-03-02 15:35:00,
2013-03-02 10:40:00,40.9,29.7,29.66,NW,314,3.0,11.0,64,0.00,,OVC036,0.00,VWS V14.01,2013-03-02 15:40:00,
2013-03-02 10:45:00,40.7,29.5,29.66,WSW,246,2.0,11.0,64,0.00,,OVC036,0.00,VWS V14.01,2013-03-02 15:45:00,
2013-03-02 10:50:00,40.7,29.9,29.66,NW,310,4.0,11.0,65,0.00,,OVC036,0.00,VWS V14.01,2013-03-02 15:50:00,
2013-03-02 10:55:00,40.6,29.8,29.66,WSW,239,3.0,13.0,65,0.00,,OVC036,0.00,VWS V14.01,2013-03-02 15:55:00,
2013-03-02 11:00:00,40.5,29.3,29.66,NNW,335,3.0,13.0,64,0.00,,OVC036,0.00,VWS V14.01,2013-03-02 16:00:00,
2013-03-02 11:05:00,40.4,29.6,29.66,West,265,4.0,10.0,65,0.00,,OVC034,0.00,VWS V14.01,2013-03-02 16:05:00,
2013-03-02 11:10:00,40.4,29.6,29.66,West,279,5.0,10.0,65,0.00,,OVC034,0.00,VWS V14.01,2013-03-02 16:10:00,
2013-03-02 11:15:00,40.3,29.5,29.66,North,355,0.0,10.0,65,0.00,,OVC034,0.00,VWS V14.01,2013-03-02 16:15:00,
2013-03-02 11:20:00,40.3,29.5,29.65,WNW,300,1.0,10.0,65,0.00,,OVC034,0.00,VWS V14.01,2013-03-02 16:20:00,
2013-03-02 11:25:00,40.3,29.5,29.65,NNW,336,2.0,10.0,65,0.00,,OVC034,0.00,VWS V14.01,2013-03-02 16:25:00,
2013-03-02 11:30:00,40.4,29.6,29.65,North,5,3.0,10.0,65,0.00,,OVC034,0.00,VWS V14.01,2013-03-02 16:30:00,
2013-03-02 11:35:00,40.5,29.7,29.65,NNW,327,5.0,5.0,65,0.00,,OVC034,0.00,VWS V14.01,2013-03-02 16:35:00,
2013-03-02 11:40:00,40.5,29.3,29.65,NW,315,2.0,7.0,64,0.00,,OVC034,0.00,VWS V14.01,2013-03-02 16:40:00,
2013-03-02 11:45:00,40.5,29.3,29.65,WNW,284,3.0,7.0,64,0.00,,OVC034,0.00,VWS V14.01,2013-03-02 16:45:00,
2013-03-02 11:50:00,40.6,29.4,29.65,NNW,336,5.0,9.0,64,0.00,,OVC034,0.00,VWS V14.01,2013-03-02 16:50:00,
2013-03-02 11:55:00,40.5,29.7,29.65,WNW,302,2.0,9.0,65,0.00,,OVC034,0.00,VWS V14.01,2013-03-02 16:55:00,
2013-03-02 12:00:00,40.5,29.7,29.64,WNW,286,1.0,9.0,65,0.00,,OVC034,0.00,VWS V14.01,2013-03-02 17:00:00,
2013-03-02 12:05:00,40.5,29.7,29.64,West,277,5.0,6.0,65,0.00,,OVC032,0.00,VWS V14.01,2013-03-02 17:05:00,
2013-03-02 12:10:00,40.5,29.3,29.64,West,279,6.0,6.0,64,0.00,,OVC032,0.00,VWS V14.01,2013-03-02 17:10:00,
2013-03-02 12:15:00,40.5,29.3,29.64,South,187,2.0,7.0,64,0.00,,OVC032,0.00,VWS V14.01,2013-03-02 17:15:00,
2013-03-02 12:20:00,40.5,29.3,29.64,WSW,252,2.0,7.0,64,0.00,,OVC032,0.00,VWS V14.01,2013-03-02 17:20:00,
2013-03-02 12:25:00,40.4,29.2,29.64,NW,304,0.0,7.0,64,0.00,,OVC032,0.00,VWS V14.01,2013-03-02 17:25:00,
2013-03-02 12:30:00,40.4,29.2,29.64,WNW,293,2.0,7.0,64,0.00,,OVC032,0.00,VWS V14.01,2013-03-02 17:30:00,
2013-03-02 12:35:00,40.4,29.2,29.64,WSW,244,2.0,6.0,64,0.00,,OVC032,0.00,VWS V14.01,2013-03-02 17:35:00,
2013-03-02 12:40:00,40.4,29.6,29.64,WSW,239,1.0,6.0,65,0.00,,OVC032,0.00,VWS V14.01,2013-03-02 17:40:00,
2013-03-02 12:45:00,40.4,29.2,29.64,NNW,341,4.0,6.0,64,0.00,,OVC032,0.00,VWS V14.01,2013-03-02 17:45:00,
2013-03-02 12:50:00,40.2,29.4,29.64,WSW,252,8.0,10.0,65,0.00,,OVC032,0.00,VWS V14.01,2013-03-02 17:50:00,
2013-03-02 12:55:00,40.2,29.4,29.64,SW,236,2.0,10.0,65,0.00,,OVC032,0.00,VWS V14.01,2013-03-02 17:55:00,
2013-03-02 13:00:00,40.3,29.5,29.63,West,277,3.0,10.0,65,0.00,,OVC034,0.00,VWS V14.01,2013-03-02 18:00:00,
2013-03-02 13:05:00,40.3,29.1,29.64,West,260,3.0,13.0,64,0.00,,OVC034,0.00,VWS V14.01,2013-03-02 18:05:00,
2013-03-02 13:10:00,40.3,29.5,29.63,WSW,255,10.0,13.0,65,0.00,,OVC034,0.00,VWS V14.01,2013-03-02 18:10:00,
2013-03-02 13:15:00,40.2,29.0,29.63,SW,236,0.0,13.0,64,0.00,,OVC034,0.00,VWS V14.01,2013-03-02 18:15:00,
2013-03-02 13:20:00,40.2,29.4,29.63,WNW,288,1.0,13.0,65,0.00,,OVC034,0.00,VWS V14.01,2013-03-02 18:20:00,
2013-03-02 13:25:00,40.3,29.5,29.63,WSW,246,2.0,13.0,65,0.00,,OVC034,0.00,VWS V14.01,2013-03-02 18:25:00,
2013-03-02 13:30:00,40.3,29.1,29.63,SW,236,7.0,13.0,64,0.00,,OVC034,0.00,VWS V14.01,2013-03-02 18:30:00,
2013-03-02 13:35:00,40.4,29.6,29.63,SSW,213,5.0,6.0,65,0.00,,OVC034,0.00,VWS V14.01,2013-03-02 18:35:00,
2013-03-02 13:40:00,40.4,29.2,29.63,West,277,1.0,10.0,64,0.00,,OVC034,0.00,VWS V14.01,2013-03-02 18:40:00,
2013-03-02 13:45:00,40.4,29.2,29.63,SW,235,4.0,11.0,64,0.00,,OVC034,0.00,VWS V14.01,2013-03-02 18:45:00,
2013-03-02 13:50:00,40.4,29.2,29.63,NW,306,1.0,11.0,64,0.00,,OVC034,0.00,VWS V14.01,2013-03-02 18:50:00,
2013-03-02 13:55:00,40.5,29.7,29.63,WSW,257,1.0,11.0,65,0.00,,OVC034,0.00,VWS V14.01,2013-03-02 18:55:00,
2013-03-02 14:00:00,40.6,29.4,29.63,SW,227,7.0,11.0,64,0.00,,OVC036,0.00,VWS V14.01,2013-03-02 19:00:00,
2013-03-02 14:05:00,40.6,29.4,29.63,West,264,1.0,8.0,64,0.00,,OVC036,0.00,VWS V14.01,2013-03-02 19:05:00,
2013-03-02 14:10:00,40.7,29.9,29.62,SSW,209,1.0,8.0,65,0.00,,OVC036,0.00,VWS V14.01,2013-03-02 19:10:00,
2013-03-02 14:15:00,40.7,29.5,29.62,SSW,207,5.0,8.0,64,0.00,,OVC036,0.00,VWS V14.01,2013-03-02 19:15:00,
2013-03-02 14:20:00,40.8,29.6,29.62,WSW,245,0.0,8.0,64,0.00,,OVC036,0.00,VWS V14.01,2013-03-02 19:20:00,
2013-03-02 14:25:00,40.8,29.2,29.62,WNW,300,4.0,8.0,63,0.00,,OVC036,0.00,VWS V14.01,2013-03-02 19:25:00,
2013-03-02 14:30:00,40.8,29.6,29.62,West,263,1.0,8.0,64,0.00,,OVC036,0.00,VWS V14.01,2013-03-02 19:30:00,
2013-03-02 14:36:00,40.9,29.7,29.62,West,277,3.0,4.0,64,0.00,,OVC036,0.00,VWS V14.01,2013-03-02 19:36:00,
2013-03-02 14:41:00,40.9,29.7,29.61,WSW,250,3.0,5.0,64,0.00,,OVC036,0.00,VWS V14.01,2013-03-02 19:41:00,
2013-03-02 14:46:00,41.0,29.8,29.61,WNW,288,1.0,5.0,64,0.00,,OVC036,0.00,VWS V14.01,2013-03-02 19:46:00,
2013-03-02 14:51:00,41.0,29.4,29.61,WSW,246,3.0,6.0,63,0.00,,OVC036,0.00,VWS V14.01,2013-03-02 19:51:00,
2013-03-02 14:56:00,41.0,29.8,29.61,West,259,3.0,6.0,64,0.00,,OVC036,0.00,VWS V14.01,2013-03-02 19:56:00,
2013-03-02 15:01:00,41.0,29.8,29.61,West,267,3.0,7.0,64,0.00,,OVC036,0.00,VWS V14.01,2013-03-02 20:01:00,
2013-03-02 15:06:00,41.0,29.8,29.61,North,355,3.0,7.0,64,0.00,,OVC036,0.00,VWS V14.01,2013-03-02 20:06:00,
2013-03-02 15:11:00,41.0,29.4,29.61,WNW,286,4.0,7.0,63,0.00,,OVC036,0.00,VWS V14.01,2013-03-02 20:11:00,
2013-03-02 15:16:00,41.1,29.5,29.61,WSW,255,3.0,7.0,63,0.00,,OVC036,0.00,VWS V14.01,2013-03-02 20:16:00,
2013-03-02 15:21:00,41.0,29.4,29.61,West,267,3.0,10.0,63,0.00,,OVC036,0.00,VWS V14.01,2013-03-02 20:21:00,
2013-03-02 15:26:00,41.0,29.4,29.61,SW,228,2.0,10.0,63,0.00,,OVC036,0.00,VWS V14.01,2013-03-02 20:26:00,
2013-03-02 15:31:00,40.9,29.3,29.61,WNW,297,3.0,10.0,63,0.00,,OVC036,0.00,VWS V14.01,2013-03-02 20:31:00,
2013-03-02 15:36:00,40.9,29.3,29.61,WNW,286,3.0,6.0,63,0.00,,OVC036,0.00,VWS V14.01,2013-03-02 20:36:00,
2013-03-02 15:41:00,40.9,29.3,29.61,WNW,291,2.0,6.0,63,0.00,,OVC036,0.00,VWS V14.01,2013-03-02 20:41:00,
2013-03-02 15:46:00,40.9,29.7,29.61,West,266,2.0,10.0,64,0.00,,OVC036,0.00,VWS V14.01,2013-03-02 20:46:00,
2013-03-02 15:51:00,40.8,29.2,29.60,WSW,250,2.0,10.0,63,0.00,,OVC036,0.00,VWS V14.01,2013-03-02 20:51:00,
2013-03-02 15:56:00,40.8,29.6,29.60,NW,313,2.0,10.0,64,0.00,,OVC036,0.00,VWS V14.01,2013-03-02 20:56:00,
2013-03-02 16:01:00,40.8,29.6,29.60,East,100,3.0,10.0,64,0.00,,OVC040,0.00,VWS V14.01,2013-03-02 21:01:00,
2013-03-02 16:06:00,40.8,29.6,29.61,WNW,298,2.0,7.0,64,0.00,,OVC040,0.00,VWS V14.01,2013-03-02 21:06:00,
2013-03-02 16:11:00,40.7,29.1,29.60,NW,322,4.0,7.0,63,0.00,,OVC040,0.00,VWS V14.01,2013-03-02 21:11:00,
2013-03-02 16:16:00,40.6,29.0,29.61,NW,315,3.0,7.0,63,0.00,,OVC040,0.00,VWS V14.01,2013-03-02 21:16:00,
2013-03-02 16:21:00,40.6,29.4,29.61,West,269,2.0,7.0,64,0.00,,OVC040,0.00,VWS V14.01,2013-03-02 21:21:00,
2013-03-02 16:26:00,40.6,29.0,29.60,NW,311,4.0,7.0,63,0.00,,OVC040,0.00,VWS V14.01,2013-03-02 21:26:00,
2013-03-02 16:31:00,40.5,29.3,29.60,NW,325,0.0,7.0,64,0.00,,OVC040,0.00,VWS V14.01,2013-03-02 21:31:00,
2013-03-02 16:36:00,40.5,29.3,29.60,NW,325,0.0,2.0,64,0.00,,OVC040,0.00,VWS V14.01,2013-03-02 21:36:00,
2013-03-02 16:41:00,40.5,29.7,29.60,NW,325,0.0,2.0,65,0.00,,OVC040,0.00,VWS V14.01,2013-03-02 21:41:00,
2013-03-02 16:46:00,40.5,29.7,29.60,NW,315,2.0,4.0,65,0.00,,OVC040,0.00,VWS V14.01,2013-03-02 21:46:00,
2013-03-02 16:51:00,40.4,29.2,29.61,NW,315,0.0,4.0,64,0.00,,OVC040,0.00,VWS V14.01,2013-03-02 21:51:00,
2013-03-02 16:56:00,40.4,29.6,29.61,NW,326,0.0,6.0,65,0.00,,OVC040,0.00,VWS V14.01,2013-03-02 21:56:00,
2013-03-02 17:01:00,40.4,29.6,29.61,NW,315,2.0,6.0,65,0.00,,OVC040,0.00,VWS V14.01,2013-03-02 22:01:00,
2013-03-02 17:06:00,40.3,29.5,29.61,NNW,330,0.0,4.0,65,0.00,,OVC040,0.00,VWS V14.01,2013-03-02 22:06:00,
2013-03-02 17:11:00,40.3,29.5,29.61,NNW,330,0.0,4.0,65,0.00,,OVC040,0.00,VWS V14.01,2013-03-02 22:11:00,
2013-03-02 17:16:00,40.2,29.4,29.61,WSW,247,1.0,4.0,65,0.00,,OVC040,0.00,VWS V14.01,2013-03-02 22:16:00,
2013-03-02 17:21:00,40.1,28.9,29.62,WSW,248,1.0,6.0,64,0.00,,OVC040,0.00,VWS V14.01,2013-03-02 22:21:00,
2013-03-02 17:26:00,40.0,28.8,29.62,WSW,255,0.0,6.0,64,0.00,,OVC040,0.00,VWS V14.01,2013-03-02 22:26:00,
2013-03-02 17:31:00,40.0,29.2,29.62,WNW,303,1.0,6.0,65,0.00,,OVC040,0.00,VWS V14.01,2013-03-02 22:31:00,
2013-03-02 17:36:00,39.9,29.5,29.62,WNW,300,2.0,3.0,66,0.00,,OVC040,0.00,VWS V14.01,2013-03-02 22:36:00,
2013-03-02 17:41:00,39.8,29.4,29.63,West,279,3.0,4.0,66,0.00,,OVC040,0.00,VWS V14.01,2013-03-02 22:41:00,
2013-03-02 17:46:00,39.8,29.0,29.62,WNW,296,0.0,5.0,65,0.00,,OVC040,0.00,VWS V14.01,2013-03-02 22:46:00,
2013-03-02 17:51:00,39.7,28.9,29.63,WNW,302,0.0,5.0,65,0.00,,OVC040,0.00,VWS V14.01,2013-03-02 22:51:00,
2013-03-02 17:56:00,39.6,28.8,29.63,WSW,250,4.0,5.0,65,0.00,,OVC040,0.00,VWS V14.01,2013-03-02 22:56:00,
2013-03-02 18:01:00,39.6,29.2,29.63,WSW,250,0.0,5.0,66,0.00,,OVC042,0.00,VWS V14.01,2013-03-02 23:01:00,
2013-03-02 18:06:00,39.5,29.1,29.63,WSW,250,0.0,3.0,66,0.00,,OVC042,0.00,VWS V14.01,2013-03-02 23:06:00,
2013-03-02 18:11:00,39.5,29.1,29.63,WSW,250,0.0,3.0,66,0.00,,OVC042,0.00,VWS V14.01,2013-03-02 23:11:00,
2013-03-02 18:16:00,39.4,29.4,29.63,WSW,250,0.0,3.0,67,0.00,,OVC042,0.00,VWS V14.01,2013-03-02 23:16:00,
2013-03-02 18:21:00,39.3,29.3,29.63,WNW,285,1.0,5.0,67,0.00,,OVC042,0.00,VWS V14.01,2013-03-02 23:21:00,
2013-03-02 18:26:00,39.3,29.3,29.64,WNW,285,1.0,5.0,67,0.00,,OVC042,0.00,VWS V14.01,2013-03-02 23:26:00,
2013-03-02 18:31:00,39.2,29.2,29.64,WSW,250,1.0,5.0,67,0.00,,OVC042,0.00,VWS V14.01,2013-03-02 23:31:00,
2013-03-02 18:36:00,39.1,29.1,29.64,NW,307,2.0,5.0,67,0.00,,OVC042,0.00,VWS V14.01,2013-03-02 23:36:00,
2013-03-02 18:41:00,39.1,29.5,29.64,NW,306,0.0,5.0,68,0.00,,OVC042,0.00,VWS V14.01,2013-03-02 23:41:00,
2013-03-02 18:46:00,39.0,29.4,29.64,NW,306,0.0,5.0,68,0.00,,OVC042,0.00,VWS V14.01,2013-03-02 23:46:00,
2013-03-02 18:51:00,38.9,29.2,29.64,NW,322,4.0,5.0,68,0.00,,OVC042,0.00,VWS V14.01,2013-03-02 23:51:00,
2013-03-02 18:56:00,38.9,29.2,29.64,NW,325,2.0,5.0,68,0.00,,OVC042,0.00,VWS V14.01,2013-03-02 23:56:00,
2013-03-02 19:01:00,38.8,29.2,29.64,NW,304,0.0,0.0,68,0.00,,OVC042,0.00,VWS V14.01,2013-03-03 00:01:00,
2013-03-02 19:06:00,38.8,29.2,29.64,NW,304,1.0,3.0,68,0.00,,OVC042,0.00,VWS V14.01,2013-03-03 00:06:00,
2013-03-02 19:11:00,38.7,29.1,29.64,West,281,3.0,5.0,68,0.00,,OVC042,0.00,VWS V14.01,2013-03-03 00:11:00,
2013-03-02 19:16:00,38.7,29.4,29.64,WNW,285,4.0,5.0,69,0.00,,OVC042,0.00,VWS V14.01,2013-03-03 00:16:00,
2013-03-02 19:21:00,38.6,29.0,29.64,WNW,284,0.0,5.0,68,0.00,,OVC042,0.00,VWS V14.01,2013-03-03 00:21:00,
2013-03-02 19:26:00,38.5,29.2,29.64,WNW,288,2.0,5.0,69,0.00,,OVC042,0.00,VWS V14.01,2013-03-03 00:26:00,
2013-03-02 19:31:00,38.5,29.2,29.64,West,279,2.0,2.0,69,0.00,,OVC042,0.00,VWS V14.01,2013-03-03 00:31:00,
2013-03-02 19:36:00,38.4,29.1,29.64,West,275,3.0,3.0,69,0.00,,OVC042,0.00,VWS V14.01,2013-03-03 00:36:00,
2013-03-02 19:41:00,38.4,29.1,29.64,NW,307,1.0,5.0,69,0.00,,OVC042,0.00,VWS V14.01,2013-03-03 00:41:00,
2013-03-02 19:46:00,38.3,29.0,29.64,West,275,0.0,7.0,69,0.00,,OVC042,0.00,VWS V14.01,2013-03-03 00:46:00,
2013-03-02 19:51:00,38.3,29.0,29.64,NNW,327,0.0,7.0,69,0.00,,OVC042,0.00,VWS V14.01,2013-03-03 00:51:00,
2013-03-02 19:56:00,38.2,29.3,29.64,NW,307,3.0,7.0,70,0.00,,OVC042,0.00,VWS V14.01,2013-03-03 00:56:00,
2013-03-02 20:01:00,38.2,28.9,29.64,NW,314,2.0,2.0,69,0.00,,OVC044,0.00,VWS V14.01,2013-03-03 01:01:00,
2013-03-02 20:06:00,38.1,28.8,29.64,NW,323,2.0,4.0,69,0.00,,OVC044,0.00,VWS V14.01,2013-03-03 01:06:00,
2013-03-02 20:11:00,38.1,29.2,29.64,NNW,333,1.0,4.0,70,0.00,,OVC044,0.00,VWS V14.01,2013-03-03 01:11:00,
2013-03-02 20:16:00,38.1,29.2,29.64,NW,323,3.0,5.0,70,0.00,,OVC044,0.00,VWS V14.01,2013-03-03 01:16:00,
2013-03-02 20:21:00,38.0,29.1,29.64,WNW,285,1.0,5.0,70,0.00,,OVC044,0.00,VWS V14.01,2013-03-03 01:21:00,
2013-03-02 20:26:00,38.0,29.1,29.64,NW,318,3.0,5.0,70,0.00,,OVC044,0.00,VWS V14.01,2013-03-03 01:26:00,
2013-03-02 20:31:00,38.0,29.1,29.64,WNW,287,0.0,1.0,70,0.00,,OVC044,0.00,VWS V14.01,2013-03-03 01:31:00,
2013-03-02 20:36:00,37.9,29.0,29.64,West,279,1.0,4.0,70,0.00,,OVC044,0.00,VWS V14.01,2013-03-03 01:36:00,
2013-03-02 20:41:00,37.9,29.0,29.64,NNW,332,2.0,6.0,70,0.00,,OVC044,0.00,VWS V14.01,2013-03-03 01:41:00,
2013-03-02 20:46:00,37.9,29.0,29.64,NW,315,1.0,10.0,70,0.00,,OVC044,0.00,VWS V14.01,2013-03-03 01:46:00,
2013-03-02 20:51:00,37.8,29.3,29.64,NW,313,3.0,10.0,71,0.00,,OVC044,0.00,VWS V14.01,2013-03-03 01:51:00,
2013-03-02 20:56:00,37.8,29.3,29.64,NW,313,1.0,10.0,71,0.00,,OVC044,0.00,VWS V14.01,2013-03-03 01:56:00,
2013-03-02 21:01:00,37.8,29.3,29.64,WNW,286,1.0,3.0,71,0.00,,OVC044,0.00,VWS V14.01,2013-03-03 02:01:00,
2013-03-02 21:06:00,37.8,29.3,29.64,NNW,327,6.0,7.0,71,0.00,,OVC044,0.00,VWS V14.01,2013-03-03 02:06:00,
2013-03-02 21:11:00,37.8,29.3,29.64,NNW,335,3.0,10.0,71,0.00,,OVC044,0.00,VWS V14.01,2013-03-03 02:11:00,
2013-03-02 21:16:00,37.7,29.2,29.64,North,350,0.0,10.0,71,0.00,,OVC044,0.00,VWS V14.01,2013-03-03 02:16:00,
2013-03-02 21:21:00,37.7,29.2,29.64,NNW,329,4.0,10.0,71,0.00,,OVC044,0.00,VWS V14.01,2013-03-03 02:21:00,
2013-03-02 21:26:00,37.7,29.2,29.64,NNW,334,2.0,10.0,71,0.00,,OVC044,0.00,VWS V14.01,2013-03-03 02:26:00,
2013-03-02 21:31:00,37.7,29.2,29.64,WNW,300,5.0,9.0,71,0.00,,OVC044,0.00,VWS V14.01,2013-03-03 02:31:00,
2013-03-02 21:36:00,37.6,29.1,29.63,WNW,303,3.0,9.0,71,0.00,,OVC044,0.00,VWS V14.01,2013-03-03 02:36:00,
2013-03-02 21:41:00,37.6,29.4,29.63,NW,323,2.0,9.0,72,0.00,,OVC044,0.00,VWS V14.01,2013-03-03 02:41:00,
2013-03-02 21:46:00,37.6,29.4,29.63,NW,317,1.0,13.0,72,0.00,,OVC044,0.00,VWS V14.01,2013-03-03 02:46:00,
2013-03-02 21:51:00,37.5,29.3,29.63,NW,319,3.0,13.0,72,0.00,,OVC044,0.00,VWS V14.01,2013-03-03 02:51:00,
2013-03-02 21:56:00,37.5,29.3,29.63,WNW,303,3.0,13.0,72,0.00,,OVC044,0.00,VWS V14.01,2013-03-03 02:56:00,
2013-03-02 22:01:00,37.5,29.3,29.63,WNW,296,0.0,2.0,72,0.00,,OVC044,0.00,VWS V14.01,2013-03-03 03:01:00,
2013-03-02 22:06:00,37.5,29.3,29.63,NW,316,3.0,5.0,72,0.00,,OVC044,0.00,VWS V14.01,2013-03-03 03:06:00,
2013-03-02 22:12:00,37.4,29.2,29.63,NW,324,4.0,7.0,72,0.00,,OVC044,0.00,VWS V14.01,2013-03-03 03:12:00,
2013-03-02 22:17:00,37.4,30.5,29.63,NNW,329,2.0,7.0,76,0.00,,OVC044,0.00,VWS V14.01,2013-03-03 03:17:00,
2013-03-02 22:22:00,37.3,29.1,29.62,NE,53,5.0,10.0,72,0.00,,OVC044,0.00,VWS V14.01,2013-03-03 03:22:00,
2013-03-02 22:27:00,37.3,29.1,29.62,NNW,327,1.0,12.0,72,0.00,,OVC044,0.00,VWS V14.01,2013-03-03 03:27:00,
2013-03-02 22:32:00,37.3,29.1,29.62,NW,320,1.0,1.0,72,0.00,,OVC044,0.00,VWS V14.01,2013-03-03 03:32:00,
2013-03-02 22:37:00,37.3,29.1,29.62,NW,324,3.0,9.0,72,0.00,,OVC044,0.00,VWS V14.01,2013-03-03 03:37:00,
2013-03-02 22:42:00,37.2,29.0,29.62,NW,311,2.0,9.0,72,0.00,,OVC044,0.00,VWS V14.01,2013-03-03 03:42:00,
2013-03-02 22:47:00,37.2,29.4,29.62,NW,323,3.0,10.0,73,0.00,,OVC044,0.00,VWS V14.01,2013-03-03 03:47:00,
2013-03-02 22:52:00,37.1,29.3,29.62,NNW,329,3.0,10.0,73,0.00,,OVC044,0.00,VWS V14.01,2013-03-03 03:52:00,
2013-03-02 22:57:00,37.1,29.3,29.62,NNW,336,6.0,12.0,73,0.00,,OVC044,0.00,VWS V14.01,2013-03-03 03:57:00,
2013-03-02 23:02:00,37.0,29.2,29.62,NNW,347,7.0,10.0,73,0.00,,OVC044,0.00,VWS V14.01,2013-03-03 04:02:00,
2013-03-02 23:07:00,36.9,29.1,29.62,NW,307,4.0,10.0,73,0.00,,OVC044,0.00,VWS V14.01,2013-03-03 04:07:00,
2013-03-02 23:12:00,36.9,29.1,29.62,NNW,327,3.0,11.0,73,0.00,,OVC044,0.00,VWS V14.01,2013-03-03 04:12:00,
2013-03-02 23:17:00,36.8,29.0,29.62,NW,324,2.0,11.0,73,0.00,,OVC044,0.00,VWS V14.01,2013-03-03 04:17:00,
2013-03-02 23:22:00,36.8,29.3,29.62,North,360,3.0,11.0,74,0.00,,OVC044,0.00,VWS V14.01,2013-03-03 04:22:00,
2013-03-02 23:27:00,36.7,29.2,29.61,NW,315,2.0,11.0,74,0.00,,OVC044,0.00,VWS V14.01,2013-03-03 04:27:00,
2013-03-02 23:32:00,36.7,29.2,29.62,North,349,4.0,5.0,74,0.00,,OVC044,0.00,VWS V14.01,2013-03-03 04:32:00,
2013-03-02 23:37:00,36.6,29.1,29.61,NW,317,3.0,13.0,74,0.00,,OVC044,0.00,VWS V14.01,2013-03-03 04:37:00,
2013-03-02 23:42:00,36.5,29.0,29.62,WNW,302,7.0,13.0,74,0.00,,OVC044,0.00,VWS V14.01,2013-03-03 04:42:00,
2013-03-02 23:47:00,36.4,28.9,29.61,NW,317,2.0,13.0,74,0.00,,OVC044,0.00,VWS V14.01,2013-03-03 04:47:00,
2013-03-02 23:52:00,36.4,28.9,29.62,NW,318,1.0,13.0,74,0.00,,OVC044,0.00,VWS V14.01,2013-03-03 04:52:00,
2013-03-02 23:57:00,36.3,28.8,29.61,NW,313,4.0,13.0,74,0.00,,OVC044,0.00,VWS V14.01,2013-03-03 04:57:00,